User: anonymous   Login
Location: Ottawa
(45.4167°N, 75.7000°W)
Time: 05:10:22
(UTC-04:00)
Language:

Envisat - Orbit

View from above orbital plane
View from above orbital plane
View from above satellite
View from above satellite

Ground track
Ground track

The orbit data is extracted from the following two-line orbital elements,

1 27386U 02009A   17291.76268897 -.00000011  00000-0  10156-4 0  9990
2 27386  98.2182 331.7949 0001255  88.7784 271.3540 14.37905620818836
Epoch (UTC): 18 October 2017 18:18:16
Eccentricity: 0.0001255
inclination: 98.2182°
perigee height: 764 km
apogee height: 766 km
right ascension of ascending node: 331.7949°
argument of perigee: 88.7784°
revolutions per day: 14.37905620
mean anomaly at epoch: 271.3540°
orbit number at epoch: 81883

The dashed part of the orbit path shows where the satellite is in the earth's shadow,  

DLR